Location: ??? ?????
(30.6482°N, 60.5850°E)
Time: 18:29:14
(UTC+00:00)

USA 186 - Pass Details

Date: 09 April 2020
Orbit: 261 x 446 km, 96.9° (Epoch: 04 June)

Event Time Altitude Azimuth Distance (km) Brightness Sun altitude
Exits shadow 15:03:16 13° 118° (ESE) 1,397 3.8 -9.5°
Maximum altitude 15:05:19 21° 75° (ENE) 1,041 3.2 -9.9°
Drops below altitude 10° 15:07:49 10° 24° (NNE) 1,509 4.5 -10.5°
Enters shadow 16:08:09 -53° 173° (S) 10,660 8.9 -22.6°
